Probability
10 32 84 81 77 74 87 87 87 90 81 87 87 87 87 84 84 81 87 90 84 84 81 81 77 81 84 81 71 74 74 74 81 81 74 71 71 74 77 71 68 65 81
10 39 81 84 84 81 84 90 90 94 94 97 90 90 90 90 84 87 94 90 84 77 74 74 77 74 77 74 71 65 61 58 61 65 65 58 65 71 77 74 71 61 77
19 39 68 81 87 90 87 90 90 90 90 94 94 97 94 94 94 90 94 94 90 81 77 77 74 71 68 61 61 61 61 58 61 58 52 35 48 71 74 74 71 71 71
13 32 58 74 77 74 81 87 90 94 90 94 94 94 94 94 90 94 97 90 87 81 77 77 71 71 71 68 65 61 55 58 58 45 23 19 29 65 77 71 74 71 61
19 26 58 74 74 74 77 81 90 90 84 87 90 90 87 87 87 90 90 90 87 84 77 74 71 65 58 58 58 52 52 48 48 29 13 6 26 58 61 61 58 55 55
19 39 61 74 74 74 74 77 87 94 84 84 87 87 84 87 90 81 87 94 87 77 74 71 68 61 61 58 52 42 42 48 23 3 6 6 23 52 65 55 58 52 52
19 35 61 81 81 77 74 77 84 90 84 84 84 87 87 90 90 84 81 90 77 74 77 71 61 58 48 45 42 35 39 42 16 3 3 10 23 52 61 61 55 55 48
19 32 52 81 84 81 81 81 81 90 87 84 84 84 84 87 84 84 84 77 71 74 71 68 55 48 35 35 39 32 39 45 16 10 3 10 32 52 65 65 61 55 55
16 26 42 55 68 77 81 81 81 81 84 77 84 81 61 65 77 84 81 65 65 58 65 61 52 45 42 42 35 42 58 48 16 6 6 16 48 65 61 58 55 58 52
10 10 16 26 29 35 52 74 81 74 68 71 68 71 68 65 61 74 74 68 65 55 58 58 48 48 55 45 45 55 52 29 13 10 6 23 52 55 58 58 61 42 45
6 6 13 13 10 16 23 45 68 65 58 48 55 65 52 16 13 29 39 58 61 58 58 58 48 52 42 42 42 48 26 19 10 6 6 23 55 52 55 52 48 48 45
10 10 6 6 13 6 13 23 23 19 13 16 13 19 16 10 10 13 42 77 68 65 61 68 68 58 26 16 23 23 16 16 10 3 13 39 55 48 55 48 42 42 45
6 13 13 6 6 6 6 6 10 6 6 13 13 13 10 10 10 13 16 32 23 35 19 23 39 13 6 6 6 6 6 6 3 3 16 58 55 48 52 42 39 35 39
16 19 10 10 10 10 3 13 13 10 6 10 10 13 10 6 10 10 10 10 6 6 6 6 6 6 6 6 6 3 10 6 3 3 16 48 58 52 45 48 48 45 35
10 13 10 13 13 10 6 10 13 6 3 10 10 10 6 10 13 10 6 13 10 10 6 6 6 6 6 6 6 10 3 3 3 6 10 29 42 48 48 48 48 45 42
6 13 13 13 6 3 13 16 13 6 3 3 10 13 10 13 13 6 10 13 10 10 10 10 6 0 0 0 6 6 3 3 3 6 13 26 45 61 52 48 45 45 48
13 16 19 13 10 13 13 13 13 13 10 13 13 13 13 13 13 13 13 13 10 10 10 6 3 0 3 3 3 0 0 0 3 10 10 6 19 39 48 55 58 55 52
16 19 19 23 13 10 13 10 10 13 10 10 10 13 10 13 16 13 6 10 10 10 10 6 6 6 6 3 3 3 0 0 3 6 6 6 3 10 29 52 61 58 55
19 16 23 23 19 19 19 19 6 3 10 10 10 10 10 6 13 10 6 10 6 6 10 6 6 6 6 3 3 3 0 0 0 6 6 6 6 3 6 19 58 55 52
19 16 26 29 26 23 19 13 13 10 13 13 13 10 10 6 13 10 6 10 6 3 3 3 3 3 3 3 6 6 0 0 0 0 0 3 3 6 6 3 3 29 45
29 23 35 32 29 26 19 23 19 13 10 19 10 16 16 10 13 13 10 6 3 3 3 3 3 6 6 3 3 3 3 3 0 0 0 0 3 10 6 6 6 3 3
35 19 32 39 35 32 29 23 26 19 19 23 26 13 13 10 6 13 13 6 6 3 3 3 3 3 3 3 3 3 3 3 0 6 0 0 0 0 3 3 3 3 3
32 26 45 32 39 35 29 35 35 23 29 29 23 23 23 23 16 16 16 6 3 3 3 6 6 6 3 3 3 3 3 3 0 0 0 0 0 0 6 6 6 3 0
39 42 32 42 48 42 35 39 29 26 23 26 29 29 23 26 23 26 29 19 10 10 13 13 6 3 3 3 3 3 3 0 0 0 0 0 0 0 0 3 3 3 0
42 55 55 45 42 42 35 35 32 26 23 29 29 29 29 26 26 29 26 23 10 10 13 16 13 6 3 3 6 3 3 0 0 0 0 0 0 0 0 0 0 0 0
48 52 48 52 45 45 39 39 29 29 35 35 35 32 23 23 29 32 29 26 10 13 13 13 10 13 10 6 3 3 3 0 0 0 0 0 0 0 0 0 3 0 0
Height
5891 5890 5890 5890 5891 5891 5891 5891 5891 5892 5892 5892 5892 5892 5892 5893 5894 5895 5896 5896 5896 5896 5897 5897 5897 5897 5897 5897 5897 5897 5897 5898 5898 5898 5898 5898 5898 5897 5897 5896 5896 5896 5895
5891 5891 5890 5891 5891 5891 5891 5891 5892 5892 5892 5893 5893 5893 5894 5894 5895 5896 5896 5897 5897 5897 5897 5897 5897 5897 5897 5897 5897 5897 5897 5898 5898 5898 5898 5898 5898 5898 5897 5897 5896 5896 5895
5891 5891 5891 5891 5891 5891 5892 5892 5892 5892 5893 5893 5894 5894 5895 5895 5896 5897 5897 5897 5897 5897 5897 5898 5898 5897 5897 5897 5897 5898 5898 5898 5898 5898 5898 5898 5898 5898 5897 5897 5896 5896 5895
5892 5891 5891 5891 5891 5891 5892 5892 5892 5893 5893 5894 5894 5894 5895 5896 5896 5897 5897 5897 5898 5898 5898 5898 5898 5898 5898 5898 5898 5898 5898 5898 5898 5898 5898 5898 5898 5898 5897 5897 5896 5895 5895
5893 5892 5892 5892 5892 5892 5892 5893 5893 5893 5894 5894 5895 5895 5895 5896 5897 5897 5897 5898 5898 5898 5898 5898 5898 5898 5898 5898 5898 5898 5898 5898 5898 5899 5898 5898 5898 5898 5897 5897 5896 5895 5894
5893 5893 5892 5891 5891 5891 5892 5892 5893 5893 5894 5895 5895 5895 5896 5897 5898 5898 5898 5898 5898 5898 5898 5898 5898 5898 5898 5899 5899 5898 5898 5898 5898 5898 5898 5898 5898 5898 5897 5897 5896 5895 5894
5894 5894 5892 5890 5889 5891 5892 5892 5893 5894 5894 5895 5896 5896 5897 5897 5898 5898 5898 5898 5898 5898 5897 5898 5898 5899 5898 5898 5899 5898 5898 5898 5898 5898 5898 5898 5898 5897 5897 5896 5896 5895 5894
5895 5895 5893 5891 5890 5891 5892 5893 5894 5894 5895 5895 5896 5896 5897 5898 5898 5898 5898 5898 5898 5898 5898 5898 5898 5898 5898 5898 5899 5898 5898 5898 5898 5898 5898 5898 5898 5897 5897 5896 5895 5894 5894
5897 5896 5895 5893 5892 5892 5893 5894 5894 5895 5895 5896 5896 5897 5897 5898 5898 5898 5898 5898 5898 5898 5898 5899 5899 5899 5898 5898 5898 5898 5898 5898 5898 5898 5898 5898 5897 5897 5896 5896 5895 5894 5893
5898 5897 5896 5895 5895 5895 5894 5894 5895 5895 5896 5896 5897 5897 5898 5898 5898 5898 5898 5898 5898 5898 5898 5898 5898 5898 5898 5898 5898 5898 5898 5898 5898 5898 5898 5897 5897 5897 5896 5895 5895 5894 5893
5900 5899 5898 5897 5896 5896 5896 5896 5896 5896 5896 5897 5897 5898 5898 5898 5898 5898 5897 5897 5898 5898 5898 5898 5898 5898 5898 5897 5897 5897 5897 5897 5897 5897 5897 5897 5896 5896 5896 5895 5894 5893 5892
5901 5900 5899 5899 5898 5897 5897 5897 5897 5897 5897 5898 5898 5898 5898 5898 5898 5898 5898 5898 5898 5898 5898 5898 5898 5897 5897 5897 5896 5897 5897 5897 5897 5897 5897 5896 5896 5895 5894 5894 5893 5892 5891
5903 5902 5901 5900 5900 5899 5899 5898 5898 5898 5899 5899 5899 5899 5898 5898 5898 5898 5898 5898 5898 5898 5898 5898 5897 5897 5897 5897 5897 5896 5896 5896 5896 5896 5896 5895 5895 5894 5894 5893 5892 5891 5891
5905 5904 5903 5902 5901 5901 5900 5899 5899 5899 5899 5899 5899 5899 5899 5899 5899 5898 5898 5898 5898 5898 5898 5897 5897 5896 5896 5896 5896 5896 5896 5896 5896 5895 5895 5895 5894 5893 5893 5892 5891 5890 5889
5907 5906 5905 5904 5903 5902 5902 5901 5901 5900 5900 5900 5900 5899 5899 5898 5898 5898 5898 5898 5898 5898 5898 5897 5897 5896 5896 5895 5895 5895 5895 5895 5895 5895 5894 5894 5893 5893 5892 5891 5890 5889 5888
5908 5908 5907 5906 5905 5904 5904 5903 5903 5902 5902 5901 5900 5900 5899 5899 5898 5898 5898 5898 5898 5897 5897 5896 5896 5896 5895 5895 5894 5895 5895 5894 5894 5894 5894 5893 5892 5892 5891 5890 5889 5888 5887
5910 5909 5908 5908 5907 5906 5906 5905 5904 5903 5903 5902 5901 5900 5899 5899 5898 5898 5897 5897 5897 5897 5896 5896 5896 5895 5895 5894 5894 5894 5894 5894 5894 5893 5892 5892 5891 5890 5889 5889 5888 5887 5886
5911 5910 5909 5909 5908 5907 5907 5906 5905 5904 5903 5903 5902 5901 5900 5899 5898 5898 5897 5897 5897 5896 5896 5896 5895 5894 5894 5894 5894 5893 5893 5893 5893 5892 5891 5890 5889 5889 5888 5887 5887 5886 5884
5912 5912 5911 5910 5909 5908 5907 5907 5906 5905 5904 5903 5903 5902 5901 5900 5899 5898 5898 5897 5897 5896 5895 5895 5894 5894 5893 5893 5893 5892 5892 5892 5892 5891 5890 5889 5888 5887 5886 5886 5885 5884 5883
5913 5913 5912 5911 5910 5909 5908 5907 5907 5906 5905 5904 5903 5902 5901 5900 5899 5898 5898 5897 5896 5896 5895 5894 5893 5893 5893 5892 5892 5892 5891 5891 5890 5889 5888 5887 5886 5885 5884 5883 5883 5882 5881
5914 5914 5913 5912 5911 5910 5909 5908 5907 5906 5905 5905 5904 5902 5901 5900 5899 5898 5898 5897 5896 5895 5894 5894 5893 5892 5892 5891 5891 5891 5890 5889 5888 5887 5886 5885 5884 5883 5882 5881 5880 5879 5878
5915 5914 5913 5912 5911 5910 5909 5908 5907 5906 5905 5905 5904 5902 5901 5900 5899 5898 5897 5896 5896 5895 5894 5893 5892 5891 5891 5890 5890 5889 5888 5887 5886 5885 5884 5883 5882 5881 5880 5879 5878 5877 5876
5916 5915 5914 5913 5912 5911 5910 5908 5907 5906 5905 5904 5903 5902 5901 5900 5899 5898 5897 5896 5895 5894 5893 5891 5891 5890 5889 5889 5888 5887 5886 5885 5884 5883 5881 5880 5880 5879 5878 5877 5876 5875 5874
5916 5914 5913 5913 5912 5910 5909 5908 5907 5906 5905 5904 5903 5902 5900 5899 5898 5897 5896 5894 5893 5892 5891 5890 5889 5888 5887 5886 5885 5885 5884 5883 5882 5881 5880 5878 5877 5876 5875 5874 5873 5872 5871
5915 5914 5913 5912 5911 5910 5909 5908 5907 5906 5905 5903 5902 5900 5899 5898 5897 5895 5894 5893 5892 5890 5889 5888 5887 5886 5885 5884 5883 5882 5881 5880 5879 5878 5877 5876 5874 5873 5872 5871 5870 5868 5867
5914 5914 5913 5911 5910 5909 5908 5907 5906 5905 5903 5902 5900 5899 5898 5896 5895 5894 5893 5892 5890 5889 5888 5886 5885 5884 5882 5881 5880 5879 5878 5877 5875 5874 5873 5872 5871 5870 5868 5867 5866 5865 5864
Wind_Speed
5 3 2 3 3 3 2 2 3 3 4 4 5 6 6 6 5 5 5 5 4 4 4 4 4 5 5 5 4 4 4 4 4 4 3 3 2 2 2 2 2 1 1
6 4 3 3 3 2 2 3 3 3 3 4 5 5 5 5 5 4 4 4 3 3 4 4 4 4 4 4 4 4 4 4 3 2 2 2 1 1 1 1 2 1 1
6 5 3 3 3 3 3 3 3 3 3 4 5 5 5 5 4 4 3 3 3 3 4 4 4 4 3 4 4 3 4 3 2 2 2 1 1 0 0 0 1 1 1
6 5 4 3 3 2 2 2 2 3 3 4 4 5 5 5 4 4 3 3 3 3 3 2 3 4 4 4 3 3 3 2 2 2 2 1 1 0 0 0 0 0 1
7 6 4 3 2 2 2 3 3 3 4 4 4 4 4 4 4 4 4 3 3 3 3 2 2 2 3 4 3 3 2 2 2 1 1 1 0 0 1 1 1 1 0
7 6 6 3 1 1 2 2 3 3 4 4 4 4 4 3 3 4 4 3 2 3 2 2 2 2 2 3 3 2 2 2 1 1 1 1 1 0 1 1 1 1 1
8 8 7 5 4 2 3 3 3 4 4 3 3 3 3 2 3 4 4 3 2 2 3 3 2 2 1 2 2 2 2 2 2 1 1 1 1 0 0 1 1 1 1
9 8 8 8 6 5 6 5 4 4 4 4 4 4 3 3 2 3 3 3 2 2 2 2 2 2 1 2 2 2 3 2 2 1 0 1 0 1 0 1 1 1 1
9 9 9 9 8 6 7 6 5 5 5 5 5 4 3 2 1 1 2 2 1 2 2 2 2 2 1 1 2 2 2 2 2 1 0 0 1 0 1 1 1 1 1
9 9 9 9 8 8 7 6 6 5 5 4 4 4 3 2 2 2 2 2 1 1 2 2 2 1 1 1 2 2 2 2 2 1 0 0 0 1 1 2 2 1 2
9 9 9 9 9 8 7 6 6 5 5 4 4 4 3 3 3 2 2 2 2 2 1 1 1 0 1 1 1 2 2 1 1 1 0 1 0 1 2 2 2 2 2
10 10 10 9 9 8 7 6 7 6 5 5 4 4 4 3 3 3 3 3 3 2 1 1 0 1 1 1 1 2 2 1 1 1 0 1 1 1 2 2 3 3 3
11 11 11 10 10 9 8 7 7 7 6 6 5 4 3 3 4 4 3 2 2 1 1 1 1 1 0 1 1 2 2 2 2 1 2 2 2 2 3 3 3 3 3
11 11 10 10 9 9 9 9 8 8 7 6 6 5 4 4 3 3 2 2 1 1 1 1 1 1 1 1 1 2 3 2 2 2 3 3 3 3 4 4 4 3 3
10 10 10 10 9 9 9 9 9 8 8 7 7 6 5 4 3 3 2 2 1 1 0 1 1 1 1 1 2 2 2 2 2 2 3 3 3 4 4 4 4 3 3
9 9 10 10 10 10 10 9 8 7 7 7 7 7 6 5 3 2 2 1 0 0 0 1 1 1 1 1 2 3 2 2 2 3 3 4 4 4 5 4 4 4 4
9 9 9 9 9 10 10 9 9 8 7 7 8 7 7 6 4 3 2 1 1 0 1 1 1 1 2 1 1 1 2 2 3 3 3 4 5 5 4 4 5 5 5
9 9 9 9 9 9 8 8 8 8 8 7 7 7 7 6 6 4 3 3 2 1 1 2 1 1 1 2 2 2 3 3 3 3 4 5 5 5 5 5 5 6 6
8 9 9 9 9 8 8 8 8 8 8 7 6 7 7 6 6 5 4 3 3 2 2 2 2 1 1 2 3 3 3 4 4 4 5 5 6 6 6 7 7 7 7
7 7 8 8 8 8 8 8 8 8 8 7 6 6 6 6 6 5 5 4 4 4 3 3 2 2 2 3 4 4 4 4 5 5 6 6 7 7 7 8 8 8 8
6 6 7 7 7 7 7 7 7 7 7 7 6 6 6 6 5 5 5 5 5 5 5 4 4 3 3 4 4 4 5 5 6 6 6 6 7 7 8 8 8 9 8
6 6 6 6 7 6 6 6 7 6 6 6 6 6 6 6 6 5 5 5 5 5 5 5 4 4 4 5 5 5 6 6 6 6 7 6 6 7 7 8 9 8 8
5 5 5 6 6 6 6 6 6 6 6 6 6 5 5 6 6 5 5 5 5 5 5 5 5 5 5 5 6 6 6 7 7 7 7 8 7 8 8 9 9 9 9
5 5 5 5 5 5 5 5 5 5 5 5 6 6 6 6 5 5 5 5 5 5 5 5 6 6 6 6 7 7 8 8 8 8 8 9 9 10 10 10 10 10 10
5 5 5 5 5 5 5 5 5 5 5 6 6 6 6 6 6 6 6 6 6 6 6 6 7 7 7 8 8 9 9 9 9 10 10 10 11 12 12 12 12 12 11
4 5 5 5 5 5 5 5 5 5 5 5 6 6 7 6 6 6 7 7 7 7 7 8 8 9 9 10 10 10 11 11 11 12 12 12 12 13 13 13 14 13 13
Wind_Direction
58 78 98 102 94 97 95 139 133 121 117 123 125 130 131 134 138 135 133 138 142 154 162 163 172 161 158 155 174 184 171 161 166 164 146 144 145 143 134 128 142 147 158
60 79 93 112 112 110 101 122 138 139 137 135 138 141 144 148 150 148 140 139 148 161 164 155 170 165 156 149 150 155 153 156 172 174 157 147 153 138 123 124 128 137 141
58 72 78 104 118 123 115 115 137 146 153 152 154 152 152 154 157 158 163 160 164 170 167 167 177 169 152 149 149 152 144 153 150 156 160 169 175 156 155 107 122 133 136
60 69 84 97 114 122 113 114 117 146 150 155 161 158 156 156 165 171 184 179 181 186 175 175 172 152 149 151 151 150 149 157 157 158 164 191 222 263 322 54 37 6 127
66 71 77 83 92 107 106 115 124 128 139 140 146 160 165 160 156 156 175 186 195 192 189 186 165 151 149 163 159 167 172 167 159 181 157 121 95 305 352 350 355 341 60
70 65 55 52 62 102 113 120 133 139 135 132 133 146 161 173 187 181 179 189 196 187 188 175 153 152 168 174 179 185 171 170 145 151 119 49 51 17 310 315 339 338 335
58 54 51 56 69 87 109 119 132 139 139 141 146 146 156 162 165 178 180 183 191 181 174 176 159 141 159 179 194 192 177 183 157 158 105 86 70 49 318 313 332 315 302
54 55 56 62 78 89 93 96 111 117 126 129 135 136 144 148 154 166 168 177 178 156 158 143 150 127 144 161 176 176 180 179 179 178 124 127 79 15 342 16 351 349 338
56 63 67 69 77 91 91 91 100 110 122 121 124 124 124 130 132 156 169 180 181 157 135 113 130 146 200 168 186 200 191 186 189 214 267 223 238 338 1 14 347 6 12
59 68 64 68 76 84 89 95 100 108 117 119 122 124 116 105 103 116 156 169 162 142 133 142 138 156 225 240 207 205 187 184 193 161 62 13 247 281 342 346 353 358 0
61 71 68 66 69 74 82 87 96 104 110 116 111 99 100 99 94 97 114 126 152 157 159 177 204 276 280 257 176 188 194 189 179 164 50 339 273 283 319 324 334 332 337
63 68 69 66 66 71 75 78 83 88 94 98 104 94 84 79 87 97 111 121 137 147 154 158 195 314 291 178 158 196 224 244 210 222 241 274 260 271 295 300 307 314 320
61 65 65 65 63 66 70 74 81 86 88 92 91 85 82 81 87 92 101 116 131 128 114 73 6 320 155 172 193 225 245 255 254 257 257 261 273 278 286 295 297 303 307
60 63 62 63 63 64 67 71 77 80 81 85 82 77 76 85 88 87 103 125 146 133 93 22 1 329 292 264 220 229 246 244 256 275 278 270 285 296 291 296 304 300 297
60 60 64 64 65 67 67 66 70 74 74 74 72 61 64 76 78 79 86 103 128 119 274 314 16 337 298 264 232 230 234 248 260 277 284 285 290 289 291 298 312 308 308
60 61 60 62 66 67 67 65 63 64 63 63 63 60 61 60 58 75 78 68 128 148 51 322 297 312 311 278 245 230 239 277 286 280 282 284 286 289 286 292 304 306 308
58 60 61 63 64 66 68 64 60 56 59 62 60 56 51 49 53 65 69 46 37 351 310 341 318 315 297 273 239 234 264 277 280 278 282 285 288 288 287 292 301 306 303
57 60 61 62 61 61 64 64 61 55 54 56 55 52 51 52 59 61 68 60 41 359 328 326 318 341 318 287 281 282 281 271 268 279 287 288 289 286 289 292 298 301 299
56 59 59 57 55 53 54 56 54 49 47 47 48 50 53 54 53 56 62 55 41 26 356 333 317 323 315 309 304 283 283 271 278 287 290 289 285 281 283 286 291 294 295
53 54 54 51 47 46 48 49 47 46 44 43 45 52 53 49 48 55 52 43 28 20 7 357 354 347 323 321 316 298 284 281 289 293 289 287 290 286 281 282 282 287 291
47 49 48 43 41 40 39 38 35 36 37 38 41 43 40 40 41 40 36 27 17 7 359 355 353 338 323 322 319 310 305 298 294 292 289 287 285 281 279 281 287 289 290
41 43 41 37 37 36 33 28 25 25 25 27 31 32 30 30 30 25 18 11 3 358 353 348 339 329 325 317 312 309 311 307 300 296 286 282 286 283 282 286 287 291 292
33 36 35 33 27 24 25 20 18 17 18 17 16 14 14 17 20 16 6 356 350 344 340 335 334 326 322 314 308 307 306 303 300 299 296 288 286 288 289 291 292 292 295
25 23 22 16 14 11 12 12 14 12 10 7 4 2 0 1 0 359 357 347 341 338 337 327 324 318 312 306 306 307 309 306 300 292 289 290 289 288 289 289 290 290 292
20 12 7 5 2 2 3 5 7 4 1 359 357 355 352 348 350 350 348 343 338 336 338 333 325 315 311 309 305 303 303 302 300 293 287 287 286 285 286 287 288 289 290
5 357 357 3 6 2 360 356 353 352 350 351 356 352 347 341 341 341 338 334 328 328 328 324 323 319 317 313 307 304 302 299 296 295 290 287 286 285 286 287 286 287 287